www.pogodaiklimat.ru

Погода и климат >> Архив погоды >> Россия >> Якутия >> Сангар


ПОГОДА в Сангаре

  • Прогноз погоды в Сангаре
  • Монитор погоды в Сангаре

АРХИВ ПОГОДЫ в Сангаре

Время (UTC), дата Ветер
(напр.,м/с)
 
Видим.   Явления Облачность Т
(С)
Тd
(С)
f
(%)
Тe
(С)
Тes
(С)
Комфортность P
(гПа)
Po
(гПа)
Тmin
(С)
Tmax
(С)
R
(мм)
R24
(мм)
S
(см)
21 15.09 З 2 50 км 10/0
[Ac und]
+1.1 +0.3 94 -3 -3 1006.6 994.7
00 16.09 СЗ 2 10 км 10/10 150 м
[St]
+3.3 +1.5 88 0 0 1007.8 996.0 -0.9
03 16.09 СЗ 4 50 км 10/3 300 м
[St Ac trans]
+5.6 +1.3 74 +2 +3 1007.9 996.2
06 16.09 СЗ 3 50 км 8/0
[Ac trans]
+7.4 +0.6 62 +5 +6 1007.8 996.2
09 16.09 СЗ 4 50 км 10/3 1000 м
[Cb calv Ac und]
+7.2 +1.0 65 +4 +4 1008.4 996.7
12 16.09 З 4 10 км 6/0
[Ac trans]
+5.2 +1.7 78 +1 +1 1008.4 996.6 +7.9
15 16.09 СЗ 4 10 км 10/0
[Ac trans Ci fib]
+3.1 +1.0 86 -2 -2 1007.9 996.0
18 16.09 СЗ 3 10 км 10/4 600 м
[Sc Ac und]
+3.4 +1.3 86 -1 -1 1006.8 995.0
21 16.09 З 4 20 км 10/10 270 м
[St]
+3.2 +1.1 86 -2 -2 995.4
00 17.09 З 3 20 км 10/10 300 м
[St]
+3.5 +0.6 81 -0 -0 1008.0 996.2 +3.0
03 17.09 СЗ 2 50 км 10/0
[Ci fib]
+6.0 +0.4 67 +4 +7 1008.3 996.6
06 17.09 СЗ 3 50 км 10/0
[Ac und]
+7.2 +0.7 63 +5 +5 1008.9 997.2
09 17.09 СЗ 4 50 км 10/4 600 м
[Cb calv Ac und]
+6.5 +0.4 65 +3 +3 1009.8 998.1
12 17.09 СЗ 4 10 км в посл. час ливневой дождь 10/5 1410 м
[Cb calv Ac und]
+4.8 +2.6 86 +1 +1 1010.1 998.3 +7.6 0.3
15 17.09 СЗ 4 10 км 10/0
[Ac trans Ci fib]
+4.6 +1.0 77 +1 +1 1009.5 997.7
18 17.09 З 5 10 км 10/0
[Ac trans Ci fib]
+3.0 +0.9 86 -2 -2 1008.9 999.0
21 17.09 СЗ 4 20 км 10/0
[Ac trans Ci fib]
+2.7 +0.9 88 -2 -2 1009.2 997.3
00 18.09 З 2 20 км 10/10 270 м
[St]
+3.3 +1.2 86 0 0 1010.4 998.6 +2.5
03 18.09 З 2 10 км слаб. ливневой дождь 10/10 270 м
[Cb calv]
+3.7 +2.7 93 +1 +1 1011.5 999.6
06 18.09 СЗ 2 10 км слаб. ливневой дождь 10/10 500 м
[Cb calv]
+4.4 +3.4 93 +2 +2 1012.4 1000.6
09 18.09 штиль 0 10 км слаб. ливневой дождь 10/10 180 м
[Cb calv]
+4.0 +3.5 97 +3 +3 1013.6 1001.8
12 18.09 В 2 10 км в посл. час ливневой дождь 10/10 120 м
[Cb calv]
+3.5 +3.0 97 0 0 1014.8 1002.9 +4.9 5
15 18.09 В 3 10 км в посл. час ливневой дождь 10/10 150 м
[Cb calv]
+2.7 +2.2 97 -2 -2 1015.0 1003.0
18 18.09 ЮВ 2 10 км {ливн. осадки} 10/10 450 м
[Cb calv]
+2.2 +1.7 96 -1 -1 1015.0 1003.0
21 18.09 В 2 20 км {ливн. осадки} 10/10 150 м
[Cb calv]
+1.7 +1.2 96 -2 -2 1014.8 1002.8
00 19.09 В 3 20 км {ливн. осадки} 10/10 180 м
[St]
+2.1 +1.0 92 -2 -2 1015.0 1003.0 +1.7 1
03 19.09 В 3 20 км 10/10 330 м
[St]
+3.8 +1.2 83 0 0 1014.2 1002.4
06 19.09 В 5 20 км 10/10 360 м
[St]
+4.7 +1.1 77 0 0 1014.0 1002.2
09 19.09 В 3 50 км 10/5 300 м
[St Ac trans Ci sp]
+4.7 -0.3 70 +1 +1 1014.2 1002.4
12 19.09 В 4 10 км 10/0
[Ac und]
+3.8 -0.8 72 -0 -0 1014.1 1002.3 +5.4
15 19.09 штиль 0 10 км 10/0
[Ac und]
+3.4 -1.0 73 +3 +3 1014.0 1002.3
18 19.09 СЗ 1 10 км 8/0
[Ac trans Ci fib]
+3.4 -0.7 74 +2 +2 1014.1 1002.3
21 19.09 штиль 0 20 км 10/4 600 м
[Cb calv Ac und]
+2.2 -0.8 81 +1 +1 1014.1 1002.2
00 20.09 З 2 20 км 10/3 600 м
[Cb calv Ac und]
+4.5 +0.9 77 +2 +2 1013.6 1001.8 +2.0
03 20.09 З 3 20 км 10/4 600 м
[Cb calv Ac und]
+5.6 +1.3 74 +2 +3 1013.1 1001.4
06 20.09 З 5 50 км 10/3 600 м
[Cb calv Ac trans Ci fib]
+7.8 +1.4 64 +4 +5 1013.1 1001.4
09 20.09 З 3 50 км 10/4 600 м
[Cb calv Ac und]
+6.4 -0.1 63 +4 +4 1013.9 1002.2
12 20.09 З 3 10 км 10/8 1000 м
[Cb calv Ac und]
+4.8 -0.8 67 +2 +2 1014.9 1003.0 +8.4
15 20.09 З 3 10 км 10/6 1440 м
[Cb calv Ac und]
+3.8 -1.4 69 0 0 1014.9 1003.0
18 20.09 Ю 2 10 км 3/0
[Ac trans]
+1.5 -1.3 82 -2 -2 1014.6 1002.6
21 20.09 СВ 2 20 км 10/0
[Ac trans]
-1.7 -2.2 96 -6 -6 1014.8 1002.6
00 21.09 В 3 50 км 6/3 600 м
[Sc Ac trans]
+1.8 -0.1 87 -3 -2 1014.3 1002.4 -3.2
03 21.09 Ю 2 50 км 4/0
[Ci fib]
+6.9 -1.0 57 +5 +9 1013.9 1002.2
06 21.09 ЮВ 2 50 км 4/3 600 м
[Cu hum Ci fib]
+8.1 -2.4 47 +7 +8 1013.5 1001.8
09 21.09 В 3 50 км 3/0
[Ci fib]
+6.3 -4.8 45 +4 +4 1013.5 1001.8
12 21.09 В 2 10 км ясно +2.0 -2.0 75 -1 -1 1014.0 1002.1 +8.6
15 21.09 В 3 10 км ясно +0.9 -1.7 83 -4 -4 1013.2 1001.2
18 21.09 ЮВ 4 10 км ясно +0.9 -1.7 83 -4 -4 1011.4 999.4
21 21.09 ЮВ 4 10 км в посл. час ливневой снег 10/4 600 м
[Cb calv Ac und]
+0.2 +0.2 100 -6 -6 1009.7 997.7
00 22.09 В 7-10
{13}
4000 м слаб. ливневой снег 10/10 210 м
[Cb calv]
+0.1 -0.2 98 -7 -7 1009.5 997.5 +0.1 3 4
03 22.09 В 6-10
{12}
10 км слаб. ливневой дождь 10/10 300 м
[Cb calv]
+0.9 +0.1 94 -6 -6 1008.7 996.8
06 22.09 В 5
{10}
10 км {ливн. осадки} 10/10 210 м
[Cb calv]
+1.9 +1.4 96 -4 -4 1009.2 997.3
09 22.09 В 3 10 км слаб. ливневой дождь 10/10 210 м
[Cb calv]
+1.6 +1.1 96 -3 -3 1010.3 998.4
12 22.09 В 2 10 км {ливн. осадки} 10/10 240 м
[Cb calv]
+1.6 +1.1 96 -2 -2 1011.3 999.4 +2.5 3
15 22.09 В 1 10 км 10/10 180 м
[Cb calv]
+1.2 +0.4 94 -1 -1 1013.3 1001.3

 

Местоположение метеостанции Сангар (Якутия, Россия): широта 63.95 долгота 127.40 высота над уровнем моря 96 м.

В архиве по умолчанию представлена погода в Сангаре за последнюю неделю. Архивные данные за месяц целиком и за предыдущие месяцы, начиная с января 2011 года, Вы можете получить, выбрав интересующий диапазон дат из раскрывающегося списка и нажав кнопку "Ввод!".


*Определитесь, кто Вы:
робот инопланетянин человек

Внимание! Время в таблицах - всемирное. Для получения местного времени необходимо прибавить поправку, которая равна 9 ч.

Смотрите также архив погоды в соседних городах и на ближайших метеорологических станциях:

Погода в Сого-Хае (Якутия, Россия) (61 км)
Погода в Батамае (Якутия, Россия) (109 км)
Погода в Хатырык-Хомо (Якутия, Россия) (127 км)
Погода в Сеген-Кюеле (Якутия, Россия) (142 км)
Погода в Намцах (Якутия, Россия) (175 км)
Погода в Бердигестяхе (Якутия, Россия) (188 км)
Погода в Себян-Кюеле (Якутия, Россия) (195 км)
Погода в Бестяхской Звероферме (Якутия, Россия) (217 км)
Погода в Верхоянском Перевозе (Якутия, Россия) (238 км)
Погода в Якутске (Якутия, Россия) (244 км)

Пояснения к столбцам:

Ветер - указаны скорость ветра в м/с - средняя за 10 мин, порывы в срок и между сроками (в фигурных скобках) и направление, откуда дует ветер: С - северный, СВ - северо-восточный, В - восточный, ЮВ - юго-восточный, Ю - южный, ЮЗ - юго-западный, З - западный, СЗ - северо-западный.
Видимость - горизонтальная дальность видимости в метрах или километрах. При видимости от 1 до 10 км при отсутствии осадков обычно наблюдается дымка, при ухудшении видимости до 1 км и менее - туман. В сухую погоду видимость может ухудшаться дымом, пылью или мглою.
Явления - указаны атмосферные явления, наблюдавшиеся в срок или в последний час перед сроком; фигурными скобками обозначены явления, наблюдавшиеся между сроками (за 1-3 часа до срока); квадратными скобками обозначены град или гололедные отложения с указанием их диаметра в мм.
Облачность - указаны через наклонную черту общая и нижняя облачность в баллах и высота нижней границы облаков в метрах; квадратными скобками обозначены формы облаков: Ci - перистые, Cs - перисто-слоистые, Cc - перисто-кучевые, Ac - высококучевые, As - высокослоистые, Sc - слоисто-кучевые, Ns - слоисто-дождевые, Cu - кучевые, Cb - кучево-дождевые. Подробнее классификацию облаков см. в Атласе облаков (PDF).
T - Температура воздуха - температура, измеренная на высоте 2 м над землей.
Td - Температура точки росы - температура, при понижении до которой содержащийся в воздухе водяной пар достигнет насыщения.
f - Относительная влажность воздуха - влажноcть воздуха, измеренная на высоте 2 м над землей.
Te - Эффективная температура - температура, которую ощущает одетый по сезону человек в тени. Характеристика душности погоды. При расчете учитывается влияние влажности воздуха и скорости ветра на теплоощущения человека.
Tes - Эффективная температура на солнце - температура, которую ощущает человек, с поправкой на солнечный нагрев. Характеристика знойности погоды. Зависит от высоты солнца над горизонтом, облачности и скорости ветра. Ночью, в пасмурную погоду, а также при ветре 12 м/с и более поправка равна нулю.
P - Атмосферное давление - приведенное к уровню моря атмосферное давление.
Po - Атмосферное давление - измеренное на уровне метеостанции атмосферное давление.
Tmin - Минимальная температура - минимум температуры воздуха на высоте 2 м над землей.
Tmax - Максимальная температура - максимум температуры воздуха на высоте 2 м над землей.
R - Количество осадков - Количество выпавших осадков за период времени, мм. При наведении курсора мыши на число - период времени, за который выпало указанное количество осадков.
R24 - Количество осадков - Количество выпавших осадков за 24 часа, мм.
S - Снежный покров - Высота снежного покрова, см. При наведении курсора мыши на число - состояние снежного покрова и степень покрытия местности в баллах.